Stündliche Wetter Julianowo

Heute, 5 März, Freitag

Zeit Temperatur Niederschläge Wind Luftdruck Luftfeuchtigkeit
00:00 -4°C° 0 mm 3 m/S 747 mmHg 82%
01:00 -3°C° 0 mm 2 m/S 747 mmHg 82%
02:00 -4°C° 0 mm 2 m/S 747 mmHg 80%
03:00 -4°C° 0 mm 2 m/S 747 mmHg 79%
04:00 -4°C° 0 mm 2 m/S 747 mmHg 77%
05:00 -4°C° 0 mm 2 m/S 747 mmHg 75%
06:00 -4°C° 0 mm 2 m/S 748 mmHg 74%
07:00 -3°C° 0 mm 2 m/S 748 mmHg 72%
08:00 -2°C° 0 mm 2 m/S 748 mmHg 69%
09:00 -1°C° 0 mm 2 m/S 749 mmHg 66%
10:00 0°C° 0 mm 3 m/S 749 mmHg 63%
11:00 0°C° 0.1 mm 3 m/S 749 mmHg 59%
12:00 +1°C° 0.1 mm 3 m/S 750 mmHg 55%
13:00 +2°C° 0.1 mm 2 m/S 750 mmHg 51%
14:00 +2°C° 0 mm 2 m/S 750 mmHg 51%
15:00 +2°C° 0 mm 2 m/S 750 mmHg 50%
16:00 +2°C° 0 mm 2 m/S 750 mmHg 49%
17:00 -1°C° 0 mm 2 m/S 751 mmHg 56%
18:00 -2°C° 0 mm 2 m/S 751 mmHg 63%
19:00 -3°C° 0 mm 2 m/S 752 mmHg 69%
20:00 -4°C° 0 mm 3 m/S 752 mmHg 72%
21:00 -4°C° 0 mm 3 m/S 752 mmHg 75%
22:00 -4°C° 0 mm 3 m/S 753 mmHg 77%
23:00 -4°C° 0 mm 3 m/S 753 mmHg 77%

Morgen, 6 März, Samstag

Zeit Temperatur Niederschläge Wind Luftdruck Luftfeuchtigkeit
00:00 -4°C° 0 mm 3 m/S 754 mmHg 76%
01:00 -4°C° 0 mm 3 m/S 754 mmHg 75%
02:00 -4°C° 0 mm 3 m/S 754 mmHg 74%
03:00 -5°C° 0 mm 3 m/S 754 mmHg 73%
04:00 -4°C° 0 mm 2 m/S 754 mmHg 72%
05:00 -4°C° 0 mm 2 m/S 755 mmHg 71%
06:00 -4°C° 0 mm 2 m/S 755 mmHg 71%
07:00 -2°C° 0 mm 1 m/S 756 mmHg 70%
08:00 -3°C° 0 mm 2 m/S 756 mmHg 63%
09:00 -1°C° 0 mm 2 m/S 756 mmHg 56%
10:00 0°C° 0 mm 3 m/S 756 mmHg 49%
11:00 0°C° 0 mm 3 m/S 755 mmHg 48%
12:00 +1°C° 0 mm 3 m/S 755 mmHg 47%
13:00 +1°C° 0 mm 4 m/S 755 mmHg 46%
14:00 +1°C° 0 mm 4 m/S 754 mmHg 47%
15:00 0°C° 0 mm 4 m/S 754 mmHg 48%
16:00 0°C° 0 mm 4 m/S 753 mmHg 50%
17:00 -1°C° 0 mm 4 m/S 752 mmHg 53%
18:00 -1°C° 0 mm 4 m/S 752 mmHg 56%
19:00 -2°C° 0 mm 5 m/S 751 mmHg 60%
20:00 -2°C° 0 mm 5 m/S 751 mmHg 70%
21:00 -3°C° 0 mm 6 m/S 750 mmHg 80%
22:00 -3°C° 0 mm 6 m/S 750 mmHg 90%
23:00 -3°C° 0 mm 7 m/S 749 mmHg 88%

übermorgen, 7 März, Sonntag

Zeit Temperatur Niederschläge Wind Luftdruck Luftfeuchtigkeit
00:00 -3°C° 0 mm 7 m/S 749 mmHg 86%
01:00 -2°C° 0 mm 8 m/S 748 mmHg 84%
02:00 -4°C° 0.1 mm 8 m/S 747 mmHg 86%
03:00 -4°C° 0.1 mm 8 m/S 747 mmHg 89%
04:00 -4°C° 0.1 mm 8 m/S 746 mmHg 91%
05:00 -4°C° 0.2 mm 8 m/S 746 mmHg 92%
06:00 -4°C° 0.2 mm 8 m/S 746 mmHg 93%
07:00 -4°C° 0.2 mm 8 m/S 746 mmHg 94%
08:00 -4°C° 0.1 mm 8 m/S 746 mmHg 93%
09:00 -4°C° 0.1 mm 8 m/S 746 mmHg 92%
10:00 -2°C° 0.1 mm 7 m/S 746 mmHg 92%
11:00 -2°C° 0.1 mm 7 m/S 746 mmHg 92%
12:00 -2°C° 0.1 mm 7 m/S 745 mmHg 92%
13:00 -2°C° 0.1 mm 7 m/S 745 mmHg 93%
14:00 -2°C° 0.3 mm 7 m/S 745 mmHg 93%
15:00 -2°C° 0.3 mm 7 m/S 745 mmHg 94%
16:00 -2°C° 0.3 mm 7 m/S 744 mmHg 95%
17:00 -3°C° 0.7 mm 6 m/S 744 mmHg 95%
18:00 -2°C° 0.7 mm 5 m/S 744 mmHg 96%
19:00 -2°C° 0.7 mm 4 m/S 744 mmHg 97%
20:00 -2°C° 0.8 mm 3 m/S 744 mmHg 94%
21:00 -4°C° 0.8 mm 3 m/S 744 mmHg 92%
22:00 -3°C° 0.8 mm 2 m/S 744 mmHg 89%
23:00 -3°C° 0.1 mm 2 m/S 744 mmHg 86%

8 März, Montag

Zeit Temperatur Niederschläge Wind Luftdruck Luftfeuchtigkeit
00:00 -4°C° 0.1 mm 2 m/S 744 mmHg 83%
01:00 -4°C° 0.1 mm 2 m/S 744 mmHg 80%
02:00 -4°C° 0 mm 2 m/S 744 mmHg 82%
03:00 -4°C° 0 mm 2 m/S 744 mmHg 84%
04:00 -6°C° 0 mm 3 m/S 744 mmHg 86%
05:00 -6°C° 0 mm 3 m/S 745 mmHg 87%
06:00 -5°C° 0 mm 2 m/S 745 mmHg 88%
07:00 -5°C° 0 mm 2 m/S 746 mmHg 89%
08:00 -4°C° 0.1 mm 2 m/S 746 mmHg 83%
09:00 -4°C° 0.1 mm 3 m/S 746 mmHg 78%
10:00 -3°C° 0.1 mm 4 m/S 747 mmHg 73%
11:00 -3°C° 0.1 mm 4 m/S 747 mmHg 71%
12:00 -2°C° 0.1 mm 4 m/S 748 mmHg 69%
13:00 -2°C° 0.1 mm 5 m/S 748 mmHg 67%
14:00 -2°C° 0.1 mm 5 m/S 748 mmHg 68%
15:00 -4°C° 0.1 mm 5 m/S 748 mmHg 69%
16:00 -4°C° 0.1 mm 5 m/S 749 mmHg 70%
17:00 -5°C° 0 mm 5 m/S 749 mmHg 74%
18:00 -5°C° 0 mm 4 m/S 750 mmHg 77%
19:00 -7°C° 0 mm 4 m/S 750 mmHg 81%
20:00 -6°C° 0 mm 3 m/S 751 mmHg 81%
21:00 -7°C° 0 mm 3 m/S 751 mmHg 82%
22:00 -7°C° 0 mm 3 m/S 752 mmHg 82%
23:00 -6°C° 0 mm 2 m/S 752 mmHg 81%

9 März, Dienstag

Zeit Temperatur Niederschläge Wind Luftdruck Luftfeuchtigkeit
00:00 -6°C° 0 mm 2 m/S 752 mmHg 80%
01:00 -6°C° 0 mm 2 m/S 753 mmHg 79%
02:00 -6°C° 0 mm 2 m/S 753 mmHg 77%
03:00 -6°C° 0 mm 2 m/S 753 mmHg 75%
04:00 -6°C° 0 mm 2 m/S 753 mmHg 73%
05:00 -6°C° 0 mm 2 m/S 753 mmHg 72%
06:00 -6°C° 0 mm 2 m/S 754 mmHg 72%
07:00 -6°C° 0 mm 2 m/S 754 mmHg 71%
08:00 -6°C° 0 mm 2 m/S 754 mmHg 66%
09:00 -5°C° 0 mm 2 m/S 755 mmHg 60%
10:00 -4°C° 0 mm 2 m/S 755 mmHg 54%
11:00 -4°C° 0 mm 2 m/S 755 mmHg 51%
12:00 -3°C° 0 mm 2 m/S 756 mmHg 47%
13:00 -3°C° 0 mm 2 m/S 756 mmHg 43%
14:00 -3°C° 0 mm 2 m/S 756 mmHg 45%
15:00 -3°C° 0 mm 2 m/S 756 mmHg 47%
16:00 -3°C° 0 mm 2 m/S 755 mmHg 48%
17:00 -4°C° 0 mm 2 m/S 756 mmHg 53%
18:00 -5°C° 0 mm 2 m/S 756 mmHg 58%
19:00 -6°C° 0 mm 2 m/S 756 mmHg 64%
20:00 -6°C° 0 mm 2 m/S 756 mmHg 64%
21:00 -6°C° 0 mm 2 m/S 757 mmHg 64%
22:00 -6°C° 0 mm 2 m/S 757 mmHg 64%
23:00 -7°C° 0 mm 2 m/S 757 mmHg 64%

10 März, Mittwoch

Zeit Temperatur Niederschläge Wind Luftdruck Luftfeuchtigkeit
00:00 -7°C° 0 mm 2 m/S 757 mmHg 64%
01:00 -7°C° 0 mm 2 m/S 757 mmHg 64%
02:00 -7°C° 0 mm 2 m/S 757 mmHg 65%
03:00 -7°C° 0 mm 2 m/S 757 mmHg 67%
04:00 -8°C° 0 mm 2 m/S 756 mmHg 68%
05:00 -7°C° 0 mm 2 m/S 756 mmHg 67%
06:00 -8°C° 0 mm 3 m/S 756 mmHg 66%
07:00 -8°C° 0 mm 3 m/S 756 mmHg 65%
08:00 -7°C° 0 mm 3 m/S 756 mmHg 58%
09:00 -5°C° 0 mm 4 m/S 756 mmHg 52%
10:00 -4°C° 0 mm 4 m/S 756 mmHg 46%
11:00 -4°C° 0 mm 5 m/S 756 mmHg 44%
12:00 -2°C° 0 mm 5 m/S 755 mmHg 41%
13:00 -1°C° 0 mm 5 m/S 755 mmHg 39%
14:00 -1°C° 0 mm 5 m/S 754 mmHg 40%
15:00 -1°C° 0 mm 5 m/S 753 mmHg 41%
16:00 -2°C° 0 mm 5 m/S 753 mmHg 42%
17:00 -2°C° 0 mm 5 m/S 752 mmHg 44%
18:00 -4°C° 0 mm 5 m/S 751 mmHg 45%
19:00 -4°C° 0 mm 6 m/S 751 mmHg 47%
20:00 -4°C° 0 mm 6 m/S 750 mmHg 46%
21:00 -4°C° 0 mm 6 m/S 749 mmHg 45%
22:00 -4°C° 0 mm 7 m/S 749 mmHg 43%
23:00 -4°C° 0 mm 7 m/S 748 mmHg 44%
Mehr zeigen

Wir brauchen deine Erlaubnis

Meteoprog und unser Service Anbieter werden persönliche Daten aufbewahren, so wie Cookies, Geräte Bezeichnung oder ähnliche Technologien von deinem Gerät und Prozess, so wie Persönliche Daten Inhalte und Werbungen, genauso wie social Media und den Verkehr zu analysieren.

  • Aufbewahrung und/oder Zugang zu deiner Geräte Informationen.

    Cookies, Geräte Bezeichnung oder andere Informationen, können aufbewahrt oder Zugang zu deinem Gerät erhalten, für den Grund, der oben angegeben wird.

  • Personalisierte Werbung und Inhalte, Messungen, Einblick in das Publikum und Produkt Entwicklung.

    Werbungen und Inhalte können personalisiert werden, basierend auf ein Profil. Mehr Daten können besser personalisierte Werbungen und Inhalte hinzufügen. Werbung und Inhalte können gezeigt und gemessen werden. Einblicke über das Publikum, welche die Werbung gesehen haben und den Inhalt, können abgeleitet werden. So wie Daten können genutzt werden, um es zu verbessern oder die Benutzer Erfahrung zu verbessern das System und die Software.

Wenn du “Ich stimme zu” klickst, erlaubst du uns, die Cookies zu benutzen die Geräte Bezeichnung, den Web oder ähnliche Technologien zu benutzen. Deine Settings, können in deinem Gerät bei deinem Browser geändert werden.

Für den bestimmten Zweck, berechtigten Interessen beruhen darauf, mehr als auf den Inhalt. Du kannst mehr darüber in unseren Privaten und Cookie Politik lesen.